Wind_Speed
3 4 4 4 5 7 8 9 9 10 10 9 9 8 7 6 5 3 2 2 4 5 7 9 10 12 13 14 15 16 17 17 17 17 16 15 15 14 13 12 12 11 10
2 3 3 3 3 4 5 6 7 8 8 8 8 7 6 5 5 4 2 1 2 4 6 7 9 10 12 14 15 16 17 18 18 18 17 17 16 15 14 13 12 11 9
3 3 4 3 2 2 2 3 4 5 6 6 6 6 5 5 4 3 2 1 1 2 4 5 7 8 10 12 13 15 16 17 17 18 17 17 16 15 14 12 11 10 8
5 5 5 5 4 3 2 1 1 2 3 3 4 4 4 3 3 2 2 1 1 2 2 3 4 5 7 8 10 12 12 14 15 15 15 15 14 13 12 11 10 8 6
7 7 7 7 7 6 5 4 3 2 1 1 1 1 1 1 1 1 1 1 1 2 2 3 3 4 5 6 7 8 9 9 11 11 11 11 10 10 8 8 6 5 4
10 10 10 9 9 9 8 8 7 6 5 4 3 3 2 1 1 1 1 1 1 1 2 3 3 3 3 4 5 5 6 7 7 7 7 6 6 5 5 4 3 3 3
12 12 11 11 12 11 11 11 10 10 9 8 7 6 6 5 4 3 2 2 1 1 2 2 3 3 2 3 3 4 4 4 4 4 3 3 2 2 2 1 1 1 1
14 14 13 13 13 14 14 14 14 14 14 13 12 11 10 9 8 7 6 5 4 3 3 2 3 2 2 2 2 2 2 2 2 2 1 2 2 1 1 1 1 0 1
16 16 14 15 15 16 17 17 17 17 18 18 17 16 14 13 12 11 10 9 8 7 5 4 3 2 2 2 2 2 1 1 1 1 1 2 2 2 2 2 1 1 2
19 18 18 17 18 18 19 19 20 20 21 22 21 20 19 17 16 15 13 12 11 10 9 8 6 4 3 3 3 2 2 1 1 1 2 3 3 3 3 2 2 2 3
22 22 22 21 21 21 21 21 22 23 23 23 23 23 22 21 20 18 17 16 15 14 13 11 10 8 6 5 4 3 3 2 2 2 2 3 3 2 2 3 3 3 3
28 27 27 27 27 26 25 25 24 24 24 24 24 24 24 24 23 22 20 19 18 17 16 15 14 12 10 9 7 6 5 4 3 3 3 3 2 2 2 2 3 3 3
34 34 34 34 34 33 32 31 30 28 27 26 25 26 26 25 24 24 23 23 22 21 20 19 17 16 14 13 11 10 8 7 5 5 4 4 3 3 3 3 3 3 3
37 38 38 39 38 38 37 37 36 35 33 32 30 27 26 26 26 25 27 26 26 24 23 22 21 20 18 17 15 14 12 10 9 7 7 6 6 5 4 3 3 3 3
37 39 39 40 40 40 40 40 40 40 39 37 36 33 31 29 28 27 27 28 28 27 26 24 24 23 22 21 20 18 17 15 13 11 10 9 8 7 6 5 5 4 4
34 36 37 38 38 39 39 40 41 41 41 41 41 39 37 35 33 32 30 28 30 29 28 27 26 26 25 24 24 23 21 19 17 15 14 12 11 10 9 8 7 6 6
30 31 32 33 34 35 36 37 38 40 40 41 42 42 42 41 39 37 35 33 32 31 30 29 28 26 25 26 27 26 25 24 22 20 18 16 15 13 12 11 10 9 8
28 29 30 30 31 31 32 33 35 36 37 38 40 41 42 43 43 42 40 39 37 34 33 31 30 29 27 27 28 29 28 27 26 24 22 21 19 17 15 14 13 12 11
26 27 27 28 29 29 30 30 32 33 34 35 37 39 40 42 42 43 43 43 42 40 37 35 33 31 29 29 29 30 31 31 30 28 26 24 22 20 19 17 16 15 14
25 25 25 25 26 27 28 29 29 31 32 34 35 36 38 40 41 42 42 44 43 42 41 39 37 35 33 31 31 31 32 33 33 32 31 28 26 24 22 21 19 18 17
21 20 20 20 21 22 23 25 26 27 29 31 33 35 36 38 39 40 41 42 43 43 42 41 40 39 37 35 33 32 33 34 34 34 33 32 30 27 25 24 23 22 21
19 18 17 17 17 17 19 20 22 23 25 27 29 31 33 35 37 38 40 41 42 42 42 42 42 41 39 38 35 33 32 34 35 35 35 34 33 31 29 27 26 24 24
19 19 18 17 16 16 16 16 17 19 20 22 24 27 29 32 34 37 39 41 42 42 42 42 43 42 40 39 37 35 33 31 34 35 35 36 35 34 32 30 29 27 26
20 20 19 18 17 16 16 15 15 15 17 19 21 23 25 28 30 33 36 39 42 43 43 42 42 43 42 41 39 37 35 33 33 34 35 36 36 35 34 32 31 29 29
20 21 20 19 18 17 16 15 14 13 14 15 17 19 21 23 26 28 32 35 39 41 43 44 43 43 43 43 41 40 39 37 35 34 34 36 37 37 36 34 33 32 31
21 21 20 20 19 18 17 16 14 13 14 14 14 15 17 19 21 24 28 31 35 38 41 42 44 43 43 44 43 42 41 40 39 36 34 34 35 37 37 36 35 34 32
Wind_Direction
22 33 35 39 49 60 69 75 77 79 80 81 83 84 85 87 91 97 127 196 228 241 249 251 255 254 257 257 257 260 264 266 268 271 275 279 283 287 290 293 301 307 311
345 354 354 8 26 43 59 70 77 80 82 83 84 86 85 85 84 84 92 141 242 257 259 262 263 264 264 263 264 266 266 267 268 269 272 275 277 281 285 289 294 301 304
299 307 308 310 323 350 30 58 72 80 85 86 87 86 85 83 80 78 79 85 290 285 277 276 278 276 270 269 268 269 268 267 267 268 270 272 274 278 282 285 288 296 298
282 283 283 282 281 286 295 311 24 74 87 91 91 89 86 81 77 72 64 50 11 326 308 298 295 289 282 279 277 274 272 272 269 267 266 268 272 276 279 279 284 288 294
274 272 270 269 269 269 269 270 271 267 252 191 134 110 93 79 67 56 51 40 23 2 346 328 318 303 294 290 285 279 276 273 271 268 265 266 269 271 275 275 278 280 283
275 266 263 262 261 262 262 262 263 263 260 256 252 249 247 255 281 295 310 335 343 340 344 342 339 322 305 297 295 289 283 278 274 269 263 260 260 263 262 264 264 271 275
281 268 261 260 260 259 258 258 257 257 257 255 254 254 254 254 256 260 266 275 289 306 327 339 348 351 337 312 303 297 289 280 277 270 252 237 240 243 244 229 255 253 261
286 280 267 262 262 261 258 257 256 255 253 252 251 251 253 253 252 253 255 259 263 268 282 307 331 342 337 317 305 297 293 285 283 243 217 199 184 174 160 130 95 147 164
290 285 280 275 269 263 260 259 258 258 255 251 249 249 250 250 250 250 252 253 255 257 261 268 283 309 314 305 300 300 303 292 272 203 165 152 149 146 134 114 104 116 141
285 282 278 277 276 271 267 265 261 260 259 255 251 249 249 249 249 249 250 251 252 253 253 256 258 264 276 279 281 285 279 257 212 188 171 158 148 135 126 119 107 107 129
273 273 272 272 274 269 269 268 265 261 259 258 255 253 251 249 249 248 249 250 252 252 252 252 252 251 252 256 262 267 260 243 213 204 188 174 161 143 130 123 112 112 125
267 265 264 265 266 266 266 265 265 264 261 259 256 256 255 253 250 247 248 249 250 251 251 251 250 248 246 246 249 252 252 246 228 205 199 188 176 164 149 138 135 132 134
268 265 263 262 261 261 262 262 260 261 261 261 259 258 256 252 251 249 248 248 249 251 251 250 250 248 245 243 243 245 245 242 236 221 215 210 202 191 178 167 160 155 147
272 269 266 264 262 260 260 260 259 258 258 259 260 260 260 255 252 253 250 249 249 250 251 249 248 248 246 243 241 242 243 241 237 234 230 223 220 217 207 196 192 181 164
276 272 269 267 265 263 261 260 259 258 257 256 257 258 258 259 257 254 253 250 249 250 249 249 248 247 246 244 243 242 241 240 237 236 234 231 228 228 227 223 219 209 195
283 280 276 272 270 268 265 262 260 259 257 256 255 255 255 255 256 257 256 254 251 250 251 249 247 245 245 244 242 241 241 240 238 236 235 234 233 233 234 234 232 227 222
289 286 283 279 276 273 269 265 262 259 257 256 255 254 253 253 254 255 254 253 253 252 251 250 249 248 247 244 241 240 239 240 239 238 236 236 235 235 236 237 237 237 236
293 290 286 283 281 278 274 269 264 261 258 255 254 253 253 253 252 253 253 253 254 254 253 253 252 249 249 245 241 239 239 240 240 239 238 237 236 235 237 239 240 241 242
298 295 290 286 283 280 278 274 269 264 259 256 254 252 251 251 251 251 251 252 254 254 254 253 252 251 249 247 244 241 239 240 240 240 239 238 237 237 238 240 242 243 243
306 301 296 292 287 283 280 277 272 267 262 257 255 252 251 250 250 250 249 250 250 250 250 250 250 250 249 248 246 244 240 238 240 240 240 239 238 238 239 240 242 243 243
320 315 310 302 295 289 285 280 275 270 266 262 258 255 252 250 249 248 248 248 248 248 248 247 248 247 247 247 247 244 242 239 239 238 239 239 239 239 240 240 241 242 242
341 336 330 322 312 303 296 289 282 275 270 265 261 258 254 251 248 246 246 245 246 246 246 246 246 245 245 245 245 245 244 240 239 238 238 238 239 239 240 240 241 242 242
353 350 345 338 331 321 311 301 292 284 277 271 266 262 257 254 250 248 246 244 244 244 244 244 244 243 242 242 242 243 243 240 237 237 236 237 237 237 239 240 241 242 242
359 358 356 352 346 339 330 319 308 299 288 279 273 268 263 259 255 251 247 245 243 242 242 243 243 242 241 240 239 239 239 237 236 234 234 235 234 236 238 239 239 241 242
2 1 0 358 355 352 347 340 330 320 310 297 287 279 271 265 260 255 250 246 243 241 241 241 241 241 240 239 237 237 236 235 234 232 233 236 235 235 236 237 239 240 241
1 2 2 3 1 358 353 347 341 334 327 317 309 299 286 275 267 261 255 249 245 242 240 239 240 239 238 237 237 236 235 234 232 232 233 235 234 234 235 236 238 240 241
Height
5907 5906 5906 5905 5904 5903 5902 5901 5900 5899 5899 5898 5898 5898 5898 5898 5898 5899 5899 5900 5901 5901 5902 5903 5903 5904 5905 5906 5906 5907 5908 5908 5908 5909 5909 5909 5909 5909 5909 5909 5909 5908 5908
5906 5906 5905 5905 5904 5903 5902 5901 5900 5900 5899 5899 5899 5899 5899 5899 5899 5899 5899 5900 5900 5900 5901 5901 5902 5903 5903 5904 5904 5905 5905 5905 5906 5906 5907 5907 5908 5908 5908 5908 5907 5907 5907
5905 5905 5905 5904 5903 5903 5902 5901 5901 5900 5900 5899 5899 5899 5899 5899 5899 5899 5899 5900 5900 5900 5900 5900 5901 5901 5902 5902 5902 5902 5902 5903 5903 5904 5905 5905 5906 5906 5906 5906 5906 5906 5906
5904 5904 5903 5903 5903 5902 5901 5901 5900 5900 5900 5899 5899 5899 5899 5899 5899 5899 5899 5899 5899 5899 5899 5899 5900 5900 5900 5900 5900 5900 5900 5900 5901 5902 5902 5903 5904 5904 5905 5905 5905 5905 5905
5903 5902 5902 5901 5901 5901 5900 5900 5900 5899 5899 5899 5899 5899 5899 5899 5899 5899 5899 5899 5899 5899 5899 5899 5899 5899 5899 5899 5899 5899 5899 5899 5899 5900 5901 5901 5902 5903 5903 5904 5904 5904 5904
5901 5900 5900 5899 5899 5899 5899 5898 5898 5898 5898 5898 5898 5898 5898 5898 5899 5899 5899 5899 5899 5899 5899 5898 5898 5898 5898 5898 5898 5898 5898 5898 5898 5899 5900 5900 5901 5902 5902 5903 5903 5903 5904
5899 5898 5897 5897 5897 5896 5896 5896 5896 5896 5896 5896 5897 5897 5897 5897 5898 5898 5898 5898 5898 5898 5898 5898 5898 5898 5898 5897 5897 5897 5897 5898 5898 5898 5899 5900 5901 5901 5902 5902 5902 5903 5903
5896 5895 5894 5894 5893 5893 5894 5894 5894 5894 5894 5894 5894 5895 5895 5896 5896 5896 5897 5897 5897 5897 5898 5898 5898 5898 5897 5897 5897 5897 5897 5897 5898 5898 5899 5900 5900 5901 5902 5902 5903 5903 5903
5893 5892 5891 5890 5890 5890 5890 5890 5890 5890 5890 5890 5891 5891 5892 5893 5893 5894 5895 5895 5896 5896 5897 5897 5897 5897 5897 5897 5897 5897 5897 5898 5898 5899 5899 5900 5900 5901 5902 5903 5903 5903 5904
5892 5890 5889 5887 5887 5886 5886 5886 5886 5885 5885 5886 5887 5887 5888 5890 5891 5891 5892 5893 5894 5894 5895 5895 5896 5896 5897 5897 5897 5897 5897 5898 5898 5899 5899 5900 5901 5901 5902 5903 5903 5904 5904
5887 5886 5885 5884 5883 5882 5882 5881 5882 5881 5881 5881 5882 5883 5884 5885 5886 5888 5889 5890 5891 5892 5893 5893 5894 5895 5895 5896 5896 5897 5897 5898 5898 5899 5899 5900 5901 5901 5902 5903 5903 5904 5905
5881 5880 5879 5879 5878 5877 5877 5877 5877 5876 5876 5876 5877 5878 5879 5880 5882 5883 5885 5886 5887 5888 5889 5890 5891 5892 5893 5894 5895 5896 5896 5897 5898 5898 5899 5900 5901 5901 5902 5903 5904 5905 5905
5874 5873 5872 5871 5871 5871 5871 5871 5871 5871 5871 5871 5871 5872 5873 5875 5876 5878 5880 5881 5883 5884 5885 5887 5888 5889 5891 5892 5893 5894 5895 5896 5897 5898 5898 5899 5900 5901 5902 5903 5904 5905 5905
5866 5864 5864 5863 5863 5862 5863 5863 5863 5864 5865 5865 5866 5867 5868 5869 5870 5872 5873 5875 5877 5879 5880 5882 5883 5885 5887 5889 5890 5891 5893 5894 5895 5896 5897 5898 5900 5901 5902 5903 5904 5904 5905
5856 5855 5854 5853 5853 5853 5854 5854 5855 5856 5857 5858 5859 5860 5861 5863 5864 5865 5867 5869 5871 5873 5875 5876 5878 5880 5883 5885 5886 5888 5889 5891 5893 5894 5896 5897 5898 5900 5901 5902 5903 5904 5905
5847 5845 5844 5843 5843 5843 5844 5844 5845 5846 5847 5849 5850 5852 5854 5855 5857 5859 5860 5862 5864 5866 5868 5870 5872 5874 5877 5880 5882 5883 5885 5887 5889 5891 5893 5895 5896 5898 5899 5900 5902 5903 5904
5839 5836 5835 5834 5833 5833 5833 5834 5835 5836 5837 5839 5841 5843 5845 5847 5849 5851 5854 5856 5857 5860 5862 5864 5866 5868 5871 5874 5876 5878 5880 5882 5885 5887 5890 5892 5893 5895 5897 5898 5900 5901 5902
5832 5829 5827 5826 5824 5824 5823 5824 5824 5825 5827 5829 5830 5833 5835 5837 5840 5842 5845 5847 5850 5852 5855 5857 5859 5862 5864 5867 5870 5872 5875 5877 5880 5882 5885 5888 5890 5892 5894 5895 5897 5899 5900
5825 5822 5820 5818 5817 5816 5815 5814 5815 5815 5817 5819 5820 5822 5825 5827 5830 5833 5836 5838 5841 5844 5847 5849 5852 5855 5857 5860 5863 5866 5869 5871 5874 5877 5880 5883 5885 5888 5890 5892 5894 5896 5897
5820 5816 5814 5812 5810 5808 5807 5806 5806 5806 5807 5809 5811 5813 5815 5817 5820 5823 5825 5828 5830 5834 5837 5841 5844 5847 5850 5852 5855 5858 5861 5865 5868 5871 5874 5877 5880 5883 5885 5888 5890 5892 5894
5815 5812 5809 5806 5804 5802 5800 5799 5798 5798 5798 5799 5801 5803 5805 5807 5810 5813 5815 5818 5820 5824 5827 5831 5835 5838 5841 5844 5847 5850 5854 5857 5860 5864 5867 5871 5874 5877 5880 5883 5885 5887 5890
5812 5808 5805 5802 5799 5797 5795 5793 5792 5791 5791 5791 5792 5793 5795 5797 5799 5802 5805 5808 5811 5814 5817 5821 5824 5828 5832 5835 5839 5841 5845 5849 5853 5857 5860 5863 5867 5870 5874 5877 5880 5882 5885
5811 5807 5803 5800 5796 5793 5791 5789 5787 5786 5785 5785 5785 5785 5786 5788 5790 5792 5795 5797 5800 5804 5807 5811 5815 5818 5822 5826 5830 5833 5837 5841 5845 5849 5852 5856 5860 5863 5867 5871 5874 5876 5879
5810 5806 5802 5798 5794 5791 5788 5785 5783 5781 5780 5779 5778 5778 5778 5779 5780 5782 5784 5787 5790 5794 5797 5800 5804 5808 5812 5816 5820 5825 5829 5833 5836 5841 5845 5848 5852 5856 5860 5864 5867 5870 5873
5810 5806 5802 5797 5794 5790 5786 5783 5780 5778 5776 5774 5773 5772 5771 5771 5772 5773 5774 5776 5779 5783 5786 5790 5794 5798 5802 5806 5811 5815 5820 5824 5828 5833 5837 5841 5844 5848 5852 5856 5860 5863 5867
5810 5806 5802 5798 5793 5789 5785 5782 5779 5776 5773 5771 5769 5767 5766 5765 5765 5765 5766 5767 5769 5772 5776 5780 5783 5787 5792 5796 5801 5805 5810 5815 5820 5825 5829 5832 5836 5840 5844 5848 5852 5856 5860